Location: Borz?cin
(51.1714°N, 19.6030°E)
Time: 08:00:30
(UTC+00:00)

Cosmos 2084 Rocket - Pass Details

Date: 19 May 2025
Orbit: 542 x 579 km, 62.8° (Epoch: 16 June)

Event Time Altitude Azimuth Distance (km) Brightness Sun altitude
Rises 20:16:55 0° 209° (SSW) 2,780 6.6 -12.4°
Reaches altitude 10° 20:19:12 10° 205° (SSW) 1,882 5.7 -12.6°
Maximum altitude 20:23:19 52° 129° (SE) 714 3.5 -13.0°
Drops below altitude 10° 20:27:27 10° 53° (NE) 1,877 6.1 -13.3°
Sets 20:29:42 0° 48° (NE) 2,771 7.0 -13.5°
